This is the latest recevied weather packets stored in our database for station/object KC3WWU. If no packets are shown the sender has not sent any weather packets the latest 10 day(s).
| Time | Temp. | Humidity | Pressure | Rain* | Wind** | Luminosity | Snow |
|---|---|---|---|---|---|---|---|
| 1777481954 | 12.78° C | 99% | 1006.9 hPa | 0 mm | - | 131 W/m² | - |
| 1777481651 | 12.78° C | 99% | 1007.1 hPa | 0 mm | - | 159 W/m² | - |
| 1777481348 | 12.22° C | 99% | 1007.1 hPa | 0 mm | - | 121 W/m² | - |
| 1777481045 | 12.22° C | 99% | 1007.3 hPa | 0 mm | - | 103 W/m² | - |
| 1777480741 | 12.22° C | 99% | 1007.4 hPa | 0 mm | - | 123 W/m² | - |
| 1777480438 | 12.22° C | 99% | 1007.6 hPa | 0 mm | - | 162 W/m² | - |
| 1777480134 | 12.78° C | 99% | 1007.7 hPa | 0 mm | - | 147 W/m² | - |
| 1777479830 | 12.22° C | 99% | 1007.7 hPa | 0 mm | - | 265 W/m² | - |
| 1777479528 | 12.22° C | 99% | 1007.9 hPa | 0 mm | - | 282 W/m² | - |
| 1777479224 | 12.22° C | 99% | 1008.2 hPa | 1.78 mm | - | 344 W/m² | - |
| 1777478921 | 11.67° C | 99% | 1008.5 hPa | 1.78 mm | - | 202 W/m² | - |
| 1777478618 | 11.67° C | 99% | 1008.1 hPa | 1.27 mm | - | 226 W/m² | - |
| 1777478315 | 11.67° C | 99% | 1008.2 hPa | 1.27 mm | - | 175 W/m² | - |
| 1777478012 | 11.67° C | 99% | 1008.4 hPa | 1.78 mm | - | 117 W/m² | - |
| 1777477706 | 11.67° C | 99% | 1008.9 hPa | 3.05 mm | - | 94 W/m² | - |
| 1777477404 | 11.67° C | 99% | 1009.3 hPa | 4.83 mm | - | 68 W/m² | - |
| 1777477100 | 11.67° C | 99% | 1009.4 hPa | 6.6 mm | - | 55 W/m² | - |
| 1777476798 | 11.67° C | 99% | 1009.2 hPa | 8.89 mm | - | 45 W/m² | - |
| 1777476494 | 11.11° C | 99% | 1009.3 hPa | 7.11 mm | - | 41 W/m² | - |
| 1777476191 | 11.11° C | 99% | 1009.6 hPa | 4.83 mm | - | 28 W/m² | - |
| 1777475887 | 11.11° C | 99% | 1009.8 hPa | 4.83 mm | - | 13 W/m² | - |
| 1777475583 | 11.11° C | 99% | 1009.3 hPa | 6.6 mm | - | 21 W/m² | - |
| 1777475279 | 11.11° C | 99% | 1009 hPa | 11.94 mm | - | 28 W/m² | - |
| 1777474974 | 11.67° C | 99% | 1009.4 hPa | 10.16 mm | - | 20 W/m² | - |
| 1777474670 | 11.67° C | 99% | 1009.7 hPa | 3.05 mm | - | 14 W/m² | - |
* Rain latest hour (hover to see other rain measurements)
** Current wind speed in m/s (hover to see current wind gust speed)